Regional Weather Roundup
Issued by NWS

Home | Current Version | Previous Version | Graphics & Text | Print | Product List | Glossary On
Versions: 1 2 3 4 5 6 7 8 9 10 11 12 13 14 15 16 17 18 19 20 21 22 23 24 25 26 27 28 29 30 31 32 33 34 35 36 37 38 39 40 41 42 43 44 45 46 47 48 49 50
000
ASUS43 KMKX 220800
RWRWI

WISCONSIN REGIONAL WEATHER ROUNDUP
NATIONAL WEATHER SERVICE MILWAUKEE/SULLIVAN WI
300 AM CDT TUE AUG 22 2017

NOTE: "FAIR" INDICATES FEW OR NO CLOUDS BELOW 12,000 FEET WITH NO
SIGNIFICANT WEATHER AND/OR OBSTRUCTIONS TO VISIBILITY.

WIZ001-002-006>008-014>016-023>028-220900-
NORTHWEST WISCONSIN

CITY           SKY/WX    TMP DP  RH WIND       PRES   REMARKS
SUPERIOR ARPT    N/A     54  54 100 CALM      29.85R FOG
ASHLAND        CLOUDY    57  56  96 SW3       29.83R
HAYWARD        CLOUDY    60  57  89 N5        29.85R
SIREN          PTCLDY    62  60  93 N3        29.87R
CUMBERLAND     MOCLDY    63  61  94 NW10      29.85R
RICE LAKE      PTCLDY    65  61  87 W9        29.85R
CHETEK         CLOUDY    66  64  91 W6        29.84R
LADYSMITH      CLOUDY    65  64  95 W10       29.83R
EAU CLAIRE     NOT AVBL
MENOMONIE      CLOUDY    67  64  90 W10       29.85R
NEW RICHMOND   PTCLDY    64  61  92 NW9       29.87S
OSCEOLA        CLEAR     64  64 100 W6        29.90R
$$

WIZ003>005-009-010-017-018-220900-
NORTH CENTRAL WISCONSIN

CITY           SKY/WX    TMP DP  RH WIND       PRES   REMARKS
MANITOWISH WTR CLOUDY    60  60 100 NW7       29.79R
ARBOR VITAE    CLOUDY    64  63  95 NW8       29.77S
WOODRUFF       CLOUDY    64  63  95 NW8       29.77S
RHINELANDER    CLOUDY    65  64  97 W9        29.77F
EAGLE RIVER    CLOUDY    65  64  94 W14       29.75F
LAND O LAKES   TSTM      65  63  94 NW8G22    29.77S
PHILLIPS       CLOUDY    65  64  96 W7        29.79S
TOMAHAWK         N/A     64  61  93 W8        29.79F
MEDFORD        CLOUDY    64  62  94 W8        29.81S
MERRILL        CLOUDY    64  64 100 SW9       29.79F
$$

WIZ029-030-035-036-043>047-220900-
CENTRAL WISCONSIN

CITY           SKY/WX    TMP DP  RH WIND       PRES   REMARKS
WAUSAU         CLOUDY    66  62  87 W14       29.77F
MOSINEE        CLOUDY    64  63  94 SW10      29.82F
MARSHFIELD     CLOUDY    65  61  87 W10       29.80F
STEVENS POINT  CLOUDY    64  62  94 W7        29.81F
WAUPACA        CLOUDY    69  65  88 W9        29.81S
WAUTOMA        CLOUDY    65  63  93 W8        29.82F
WISC RAPIDS    CLOUDY    65  63  93 SW8       29.82F
CAMP DOUGLAS   NOT AVBL
$$

WIZ011>013-019>022-031-037>040-048>050-220900-
NORTHEAST WISCONSIN

CITY           SKY/WX    TMP DP  RH WIND       PRES   REMARKS
ANTIGO         CLOUDY    64  62  96 SW9       29.79F
SHAWANO        CLOUDY    69  63  82 W7        29.78S
OCONTO         MOCLDY    68  63  83 W7        29.75F
STURGEON BAY   CLOUDY    69  65  86 SW8       29.75F
GREEN BAY      MOCLDY    68  65  90 W12       29.76F
MANITOWOC      NOT AVBL
APPLETON       CLOUDY    66  63  88 W9        29.78F
CLINTONVILLE   CLOUDY    66  61  82 W7        29.79F
OSHKOSH        PTCLDY    68  64  87 W5        29.80S
$$

WIZ032>034-041-042-053>061-220900-
SOUTHWEST WISCONSIN

CITY           SKY/WX    TMP DP  RH WIND       PRES   REMARKS
LA CROSSE      MOCLDY    70  64  81 W10       29.85F
SPARTA         CLOUDY    61  61 100 SW3       29.86S
VIROQUA        PTCLDY    62  62 100 CALM      29.89F
BOSCOBEL       CLOUDY    67  64  90 SW6       29.88F
PRAIRIE DU CHI CLOUDY    65  62  89 SW3       29.90F
PLATTEVILLE    CLOUDY    66  66 100 W8        29.90F
$$

WIZ056-057-062-063-064-067-068-220900-
SOUTH CENTRAL WISCONSIN

CITY           SKY/WX    TMP DP  RH WIND       PRES   REMARKS
REEDSBURG      CLOUDY    65  65 100 W8        29.86S
BARABOO/DELLS  CLOUDY    65  62  89 W5        29.86S
LONE ROCK      CLOUDY    67  65  93 W7        29.86F
MINERAL POINT  CLOUDY    66  66 100 W7        29.90S
MADISON        CLOUDY    68  64  87 VRB7      29.85R
MIDDLETON      CLOUDY    68  66  93 W8        29.87R
WATERTOWN      CLOUDY    70  67  92 W8        29.83F
MONROE         CLOUDY    68  64  88 W14G23    29.88R
JANESVILLE     CLOUDY    72  70  94 W14G20    29.85R
$$

WIZ051-052-058>065-066-070>072-220900-
SOUTHEAST WISCONSIN

CITY           SKY/WX    TMP DP  RH WIND       PRES   REMARKS
MILWAUKEE      CLOUDY    75  70  84 SW13      29.81F
WAUKESHA       CLOUDY    70  68  94 W7        29.83F
MILWAUKEE/TIMM LGT RAIN  72  64  78 W7        29.81F
RACINE         CLOUDY    73  70  90 SW9       29.84S
KENOSHA        CLOUDY    73  69  87 W10       29.85R
FOND DU LAC    CLOUDY    69  63  81 W7        29.81F
SHEBOYGAN      CLOUDY    70  69  97 W6        29.78F
WEST BEND      CLOUDY    70  68  94 W12       29.81F
JUNEAU         CLOUDY    68  63  86 W5        29.84F
$$

LSZ147-162-220900-
LAKE SUPERIOR

STATION/POSITION TIME  TEMP    WIND        PRES    WAVE
                       AIR SEA DIR/SP/G            HT/PER
                 (UTC) (F)     (DEG/KT/KT) (MB)    (FT/S)
W MID LAKE BUOY  0650   58 60  320/ 10/ 12 1008.2F   1/ 2
DEVILS ISLAND    0700   58     340/  7/  8 1009.5F
PORT WING        0530   61      30/ 10/ 11 1010.2
SAXON HARBOR     0730   60      50/  4/  7 1009.1R
$$

LMZ867-665-643>646-220900-
LAKE MICHIGAN

STATION/POSITION TIME  TEMP    WIND        PRES    WAVE
                       AIR SEA DIR/SP/G            HT/PER
                 (UTC) (F)     (DEG/KT/KT) (MB)    (FT/S)
S GREEN BAY BUOY 0730   72 72  230/ 12/ 16 1007.4F
N MID LAKE BUOY  0650   69 68  210/ 16/ 19 1006.9F   2/ 4
NORTHPORT PIER   0740   71     200/  4/  8 1006.4F
KEWAUNEE LAKESHO 0730   72     260/  6/ 10 1007.0F
SHEBOYGAN LAKESH 0700   73     270/  8/ 10 1008.5F
PORT WASHINGTON  0730   74     270/  6/ 10 1009.8F
ATWATER BUOY     0609   74 69  240/ 10/ 12 1009.6F
MILWAUKEE LAKESH 0740   74     240/  8/ 10   N/A
S MID LAKE BUOY  0650   73 72  230/ 17/ 21 1009.2F   1/ 4
KENOSHA   LAKESH 0700   75     230/  8/ 14 1009.8
$$

TC  - TEMPERATURE IN CELSIUS
VSB - VISIBILITY IN STATUTE MILES
WCI - WIND CHILL INDEX
HX  - HEAT INDEX




USA.gov is the U.S. government's official web portal to all federal, state and local government web resources and services.